Fa'a'ā International Airport

Airport
ICAO code: 
NTAA
IATA Code: 
PPT
Summary
ICAO Region: 
APAC
Territory: 
Location: 
Fa'a'ā, Tahiti,
Serving: 
Pape'ete
Elevation: 
7 ft
Coordinates: 
Aerial View: 
17° 33' 13.128" S, 149° 36' 25.339" W
Metar
Observation
NTAA 271900Z VRB02KT 9999 FEW026 28/21 Q1016 NOSIG
Station
Tahiti-Faaa
Date/Time
2022-05-27 19:00:00
Wind speed
02 kts
Lowest cloud amount
few clouds
Temperature
28°C
Dew point
21°C
Humidity
65%
QNH
1016 hPa
Weather condition
n/a

Description

Faa'a International Airport or Tahiti Faa'a International Airport is located in the commune (municipality) of Faa'a, on the island of Tahiti, French Polynesia, 5 km west southwest from the town center of Papeete, the capital of French Polynesia. It is the only airport in French Polynesia serving international flights.

Climatology

Tropical Monsoon climate (Köppen climate classification Am) - monthly mean temperatures above 18°C in every month of the year and features wet and dry seasons. A tropical monsoon climate typically features less pronounced dry seasons than a tropical savanna climate and see less variance in temperatures during the course of the year. The driest month nearly always occurs at or soon after the "winter" solstice.

Runways

Designator Length Width Surface Rops
4/22 3463 45 ASP Yes/Yes
Airport map: 
Aerial View: 

Accidents and Serious Incidents at or in the vicinity of NTAA

SKYbrary Partners:

Safety knowledge contributed by: